Location: Wanzleben
(52.0609°N, 11.4408°E)
Time: 00:43:54
(UTC+00:00)

Lacrosse 4 Rocket - Visible Passes

Search period start: 24 January 2021 00:00
Search period end: 03 February 2021 00:00
Orbit: 537 x 620 km, 68.0° (Epoch: 23 January)

Date Brightness Start Highest point End Pass type
(mag) Time Alt. Az. Time Alt. Az. Time Alt. Az.
24 Jan 4.5 03:50:31 10° SE 03:52:23 13° ESE 03:54:16 10° ENE visible
24 Jan 1.5 05:26:02 10° SSW 05:30:18 83° SE 05:34:43 10° NE visible
25 Jan 4.1 03:53:43 10° SSE 03:56:40 19° ESE 03:59:41 10° ENE visible
25 Jan 1.4 05:30:36 10° SW 05:34:52 70° NW 05:39:17 10° NNE visible
26 Jan 3.5 03:58:55 18° SSE 04:01:01 26° ESE 04:04:41 10° NE visible
26 Jan 1.7 05:35:18 10° SW 05:39:28 50° NW 05:43:48 10° NNE visible
27 Jan 2.8 04:04:26 33° SSE 04:05:25 38° ESE 04:09:30 10° NE visible
27 Jan 2.1 05:40:48 14° WSW 05:44:08 37° NW 05:48:17 10° NNE visible
28 Jan 2.0 04:09:40 55° SE 04:09:52 55° ESE 04:14:11 10° NE visible
28 Jan 2.4 05:46:01 15° W 05:48:50 29° NW 05:52:45 10° NNE visible
29 Jan 1.6 04:14:42 74° ENE 04:14:42 74° ENE 04:18:48 10° NE visible
29 Jan 2.8 05:51:02 14° WNW 05:53:36 23° NW 05:57:11 10° NNE visible
30 Jan 4.6 02:43:15 12° ENE 02:43:15 12° ENE 02:43:43 10° ENE visible
30 Jan 1.7 04:19:35 60° N 04:19:35 60° N 04:23:21 10° NNE visible
30 Jan 3.1 05:55:55 13° WNW 05:58:23 19° NNW 06:01:37 10° NNE visible
31 Jan 4.5 02:48:03 13° ENE 02:48:03 13° ENE 02:48:44 10° NE visible
31 Jan 2.1 04:24:22 45° N 04:24:22 45° N 04:27:53 10° NNE visible
31 Jan 3.3 06:00:41 11° WNW 06:03:13 16° NNW 06:06:02 10° NNE visible
01 Feb 4.4 02:52:44 15° NE 02:52:44 15° NE 02:53:33 10° NE visible
01 Feb 2.4 04:29:03 35° NNW 04:29:03 35° NNW 04:32:22 10° NNE visible
01 Feb 3.5 06:05:46 10° NW 06:08:06 14° NNW 06:10:27 10° NNE visible
02 Feb 4.3 02:57:22 15° NE 02:57:22 15° NE 02:58:15 10° NE visible
02 Feb 2.7 04:33:41 28° NNW 04:33:41 28° NNW 04:36:49 10° NNE visible
02 Feb 3.6 06:11:08 10° NW 06:13:00 12° NNW 06:14:52 10° N visible
